Location: Ellingshausen
(50.5460°N, 10.4723°E)
Time: 20:44:25
(UTC+00:00)

ATLAS 2AS CENTAUR R/B - Pass Details

Date: 18 January 2026
Orbit: 1050 x 1161 km, 63.7° (Epoch: 16 February)

Event Time Altitude Azimuth Distance (km) Brightness Sun altitude
Exits shadow 05:04:09 28° 306° (NW) 1,866 3.5 -19.5°
Maximum altitude 05:07:50 64° 234° (SW) 1,154 2.7 -18.9°
Drops below altitude 10° 05:14:30 10° 155° (SSE) 2,867 5.4 -17.9°
Sets 05:17:09 0° 152° (SSE) 3,825 6.2 -17.5°
